Regional Weather Roundup
Issued by NWS

Home | Current Version | Previous Version | Graphics & Text | Print | Product List | Glossary On
Versions: 1 2 3 4 5 6 7 8 9 10 11 12 13 14 15 16 17 18 19 20 21 22 23 24 25 26 27 28 29 30 31 32 33 34 35 36 37 38 39 40 41 42 43 44 45 46 47 48 49 50
783
ASUS43 KLSX 200907
RWRMO

WEATHER SUMMARY FOR MISSOURI
NATIONAL WEATHER SERVICE SPRINGFIELD MO
300 AM CST FRI JAN 20 2017

NOTE: "FAIR" INDICATES FEW OR NO CLOUDS BELOW 12,000 FEET WITH NO
       SIGNIFICANT WEATHER AND/OR OBSTRUCTIONS TO VISIBILITY.
       CURRENT SKY AND/OR WEATHER CONDITIONS ARE NOT AVAILABLE FOR
       CHILLICOTHE AND FARMINGTON.

MOZ001>031-035>038-043-044-053-054-201000-
...NORTHERN AND WESTERN MISSOURI...

CITY           SKY/WX    TMP DP  RH WIND       PRES   REMARKS
KANSAS CTY INT FOG       45  43  93 E6        29.59F VSB 1/2
KANSAS C DTWN  CLOUDY    47  47 100 CALM      29.60R FOG
LEE`S SUMMIT   CLOUDY    46  46 100 SE5       29.59F FOG
ST JOSEPH      FOG       42  42 100 CALM      29.60F VSB 1
CHILLICOTHE      N/A     43  43 100 CALM      29.62F
KIRKSVILLE     FOG       40  40 100 NE3       29.61F VSB 1/4

$$
MOZ066>068-077>081-088>096-101>105-201000-
...SOUTHWEST MISSOURI...

CITY           SKY/WX    TMP DP  RH WIND       PRES   REMARKS
SPRINGFIELD    CLOUDY    48  47  96 SE5       29.60F
JOPLIN         CLOUDY    49  48  97 SE6       29.60S FOG
BRANSON        FOG       39  39 100 CALM      29.63F VSB<1/4

$$
MOZ032>034-039>042-045>050-055>058-069>072-201000-
...CENTRAL MISSOURI...

CITY           SKY/WX    TMP DP  RH WIND       PRES   REMARKS
COLUMBIA       FOG       44 N/A N/A CALM      29.61R VSB 1/4
JEFFERSON CITY FOG       46  46 100 CALM      29.63R VSB 1/4
ROLLA          CLOUDY    48  48 100 S8        29.61R
SEDALIA        FOG       47  46  97 S5        29.62F VSB 1/2
WHITEMAN AFB   PTCLDY    46  46 100 CALM      29.59F FOG
WARRENSBURG    FOG       45  45 100 CALM      29.60F VSB 3/4
OSAGE BEACH    MOCLDY    48  48 100 CALM      29.61F FOG

$$
MOZ051-052-059>065-201000-
...EAST CENTRAL MISSOURI...

CITY           SKY/WX    TMP DP  RH WIND       PRES   REMARKS
ST LOUIS INTL  FOG       48  47  96 CALM      29.62F VSB 1/8
SPIRIT OF STL  CLOUDY    45  45 100 CALM      29.61F FOG
ST CHARLES     FOG       45  45 100 CALM      29.62F VSB 1/4

$$
MOZ072>076-082>087-097>100-106>115-201000-
...SOUTH CENTRAL AND SOUTHEAST MISSOURI...

CITY           SKY/WX    TMP DP  RH WIND       PRES   REMARKS
CAPE GIRARDEAU CLOUDY    52  50  93 W12       29.66S
FARMINGTON     CLOUDY    48  48 100 SE5       29.64F
POPLAR BLUFF   CLOUDY    50  50 100 SW8       29.67S
WEST PLAINS    CLOUDY    49  48  97 CALM      29.65F

$$



USA.gov is the U.S. government's official web portal to all federal, state and local government web resources and services.